period_start,C,m1,H,J0,J1,J2,J3,J4,J5,JA,JB,JC,JD,JJ,JK,JN,#
2014-02-14 00:00:28,0.36,5.65,0.00,20.25,25.55,28.58,6.25,31.33,1032.77,2043.11,1860.51,2073.05,2266.01,349.59,332.22,7.75,0000 0000 0000 0000 000000
2014-02-14 00:01:28,0.38,5.65,0.00,20.24,25.55,28.55,6.20,31.33,1032.75,2043.17,1860.16,2072.66,2265.49,349.95,332.16,7.76,0000 0000 0000 0000 000000
2014-02-14 00:02:29,0.50,5.65,0.00,20.24,25.55,28.55,6.16,31.46,1032.77,2043.19,1859.74,2072.25,2265.17,349.80,332.01,7.76,0000 0000 0000 0000 000000
2014-02-14 00:03:29,0.38,5.65,0.00,20.24,25.55,28.58,6.19,31.50,1032.74,2043.26,1859.28,2072.09,2264.99,349.92,332.86,7.77,0000 0000 0000 0000 000000
2014-02-14 00:04:29,0.32,5.66,0.00,20.24,25.54,28.54,6.10,31.50,1032.74,2043.27,1858.95,2071.70,2264.48,349.87,332.24,7.77,0000 0000 0000 0000 000000
2014-02-14 00:05:29,0.42,5.66,0.00,20.24,25.54,28.61,6.27,31.25,1032.75,2043.30,1858.41,2071.26,2264.17,350.65,333.21,7.78,0000 0000 0000 0000 000000
2014-02-14 00:06:30,0.45,5.66,0.00,20.24,25.53,28.56,6.22,31.46,1032.75,2043.31,1858.13,2071.09,2263.97,350.21,332.39,7.79,0000 0000 0000 0000 000000
2014-02-14 00:07:30,0.35,5.66,0.00,20.24,25.52,28.55,6.18,31.46,1032.74,2043.41,1857.67,2070.78,2263.47,350.05,332.34,7.79,0000 0000 0000 0000 000000
2014-02-14 00:08:30,0.47,5.67,0.00,20.24,25.52,28.57,6.07,31.38,1032.77,2043.37,1857.24,2070.32,2263.16,349.99,332.73,7.80,0000 0000 0000 0000 000000
2014-02-14 00:09:31,0.39,5.67,0.00,20.24,25.52,28.53,6.37,31.50,1032.81,2043.36,1857.08,2070.11,2262.70,350.91,333.14,7.80,0000 0000 0000 0000 000000
2014-02-14 00:10:31,0.29,5.67,0.00,20.24,25.52,28.52,6.14,31.46,1032.78,2043.55,1856.76,2069.80,2262.26,350.10,332.30,7.81,0000 0000 0000 0000 000000
2014-02-14 00:11:31,0.54,5.67,0.00,20.23,25.52,28.55,6.14,31.38,1032.74,2043.67,1856.28,2069.32,2262.01,349.39,331.62,7.82,0000 0000 0000 0000 000000
2014-02-14 00:12:31,0.53,5.68,0.00,20.22,25.52,28.55,6.40,31.50,1032.75,2043.67,1855.92,2069.10,2261.48,350.43,332.68,7.82,0000 0000 0000 0000 000000
2014-02-14 00:13:32,0.38,5.68,0.00,20.22,25.52,28.50,6.27,31.42,1032.80,2043.70,1855.35,2068.69,2261.16,350.60,332.81,7.83,0000 0000 0000 0000 000000
2014-02-14 00:14:32,0.45,5.68,0.00,20.22,25.51,28.54,6.29,31.29,1032.81,2043.67,1855.05,2068.26,2260.67,351.06,333.25,7.83,0000 0000 0000 0000 000000
2014-02-14 00:15:32,0.40,5.68,0.00,20.22,25.50,28.53,6.20,31.42,1032.76,2043.59,1854.47,2068.02,2260.24,349.80,332.19,7.84,0000 0000 0000 0000 000000
2014-02-14 00:16:33,0.35,5.69,0.00,20.21,25.50,28.48,5.98,31.33,1032.76,2043.65,1854.06,2067.46,2259.91,349.38,331.70,7.84,0000 0000 0000 0000 000000
2014-02-14 00:17:33,0.52,5.69,0.00,20.20,25.50,28.52,6.19,31.33,1032.78,2043.69,1853.48,2067.16,2259.37,350.23,332.47,7.85,0000 0000 0000 0000 000000
2014-02-14 00:18:33,0.50,5.69,0.00,20.21,25.50,28.53,6.22,31.33,1032.78,2043.74,1853.13,2066.84,2259.10,350.01,332.07,7.86,0000 0000 0000 0000 000000
2014-02-14 00:19:33,0.41,5.69,0.00,20.21,25.50,28.57,6.23,31.29,1032.78,2043.71,1852.57,2066.33,2258.54,350.49,332.72,7.86,0000 0000 0000 0000 000000
2014-02-14 00:20:34,0.52,5.70,0.00,20.20,25.50,28.57,6.43,31.38,1032.75,2043.82,1852.20,2066.10,2258.18,351.11,333.31,7.87,0000 0000 0000 0000 000000
2014-02-14 00:21:34,0.47,5.70,0.00,20.19,25.50,28.48,6.26,31.29,1032.75,2043.87,1851.78,2065.74,2257.78,350.38,332.62,7.87,0000 0000 0000 0000 000000
2014-02-14 00:22:34,0.42,5.70,0.00,20.19,25.49,28.50,6.06,31.25,1032.77,2043.83,1851.29,2065.28,2257.30,349.40,331.51,7.88,0000 0000 0000 0000 000000
2014-02-14 00:23:35,0.49,5.71,0.00,20.19,25.48,28.47,6.06,31.25,1032.75,2043.90,1850.81,2065.04,2257.07,349.98,332.33,7.89,0000 0000 0000 0000 000000
2014-02-14 00:24:35,0.40,5.71,0.00,20.19,25.47,28.47,6.18,31.25,1032.76,2043.90,1850.30,2064.54,2256.55,349.77,331.73,7.89,0000 0000 0000 0000 000000
2014-02-14 00:25:35,0.50,5.71,0.00,20.19,25.47,28.50,6.27,31.21,1032.76,2043.94,1849.88,2064.19,2256.20,350.87,333.09,7.90,0000 0000 0000 0000 000000
2014-02-14 00:26:35,0.44,5.71,0.00,20.17,25.47,28.53,6.28,31.38,1032.74,2043.94,1849.35,2063.91,2255.89,350.87,332.61,7.90,0000 0000 0000 0000 000000
2014-02-14 00:27:36,0.42,5.72,0.00,20.17,25.47,28.53,6.17,31.33,1032.73,2043.94,1848.84,2063.38,2255.35,349.48,331.78,7.91,0000 0000 0000 0000 000000
2014-02-14 00:28:36,0.52,5.72,0.00,20.17,25.47,28.51,6.13,31.33,1032.73,2043.92,1848.32,2063.13,2255.07,349.29,331.60,7.91,0000 0000 0000 0000 000000
2014-02-14 00:29:36,0.42,5.72,0.00,20.17,25.47,28.52,6.28,31.46,1032.75,2043.93,1847.80,2062.71,2254.54,350.14,332.42,7.92,0000 0000 0000 0000 000000
2014-02-14 00:30:37,0.43,5.72,0.00,20.17,25.47,28.52,6.02,31.33,1032.73,2043.95,1847.29,2062.28,2254.18,349.64,331.94,7.93,0000 0000 0000 0000 000000
2014-02-14 00:31:37,0.52,5.73,0.00,20.17,25.46,28.52,6.19,31.38,1032.73,2043.96,1846.88,2062.07,2253.82,350.38,332.63,7.93,0000 0000 0000 0000 000000
2014-02-14 00:32:37,0.36,5.73,0.00,20.17,25.45,28.48,6.14,31.33,1032.73,2043.97,1846.35,2061.55,2253.33,349.92,332.20,7.94,0000 0000 0000 0000 000000
2014-02-14 00:33:37,0.51,5.73,0.00,20.16,25.45,28.52,6.35,31.29,1032.74,2043.95,1845.92,2061.19,2253.07,350.04,332.33,7.94,0000 0000 0000 0000 000000
2014-02-14 00:34:38,0.40,5.74,0.00,20.16,25.45,28.49,6.11,31.29,1032.73,2043.95,1845.35,2060.93,2252.53,349.49,331.81,7.95,0000 0000 0000 0000 000000
2014-02-14 00:35:38,0.45,5.74,0.00,20.15,25.45,28.50,6.23,31.33,1032.75,2043.96,1844.90,2060.41,2252.19,349.91,332.22,7.96,0000 0000 0000 0000 000000
2014-02-14 00:36:38,0.46,5.74,0.00,20.14,25.45,28.51,6.27,31.33,1032.74,2043.97,1844.35,2060.15,2251.82,350.88,333.14,7.96,0000 0000 0000 0000 000000
2014-02-14 00:37:39,0.41,5.74,0.00,20.14,25.45,28.47,6.13,31.33,1032.74,2043.98,1844.03,2059.79,2251.32,349.53,331.86,7.97,0000 0000 0000 0000 000000
2014-02-14 00:38:39,0.44,5.75,0.00,20.14,25.44,28.50,6.01,31.25,1032.76,2043.97,1843.44,2059.31,2251.08,349.57,331.73,7.97,0000 0000 0000 0000 000000
2014-02-14 00:39:39,0.43,5.75,0.00,20.14,25.44,28.50,6.29,31.42,1032.76,2043.95,1843.08,2059.09,2250.59,350.20,331.78,7.98,0000 0000 0000 0000 000000
2014-02-14 00:40:39,0.38,5.75,0.00,20.14,25.43,28.48,6.17,31.46,1032.76,2043.97,1842.48,2058.70,2250.21,349.31,331.64,7.99,0000 0000 0000 0000 000000
2014-02-14 00:41:40,0.46,5.75,0.00,20.14,25.42,28.49,6.29,31.42,1032.76,2043.97,1842.12,2058.26,2249.93,350.37,332.67,7.99,0000 0000 0000 0000 000000
2014-02-14 00:42:40,0.45,5.75,0.00,20.14,25.42,28.43,6.19,31.33,1032.74,2043.98,1841.54,2058.03,2249.40,349.85,332.31,8.00,0000 0000 0000 0000 000000
2014-02-14 00:43:40,0.45,5.76,0.00,20.12,25.42,28.40,5.92,31.33,1032.74,2043.98,1841.10,2057.50,2249.12,348.55,331.38,8.00,0000 0000 0000 0000 000000
2014-02-14 00:44:40,0.49,5.76,0.00,20.12,25.42,28.42,6.20,31.42,1032.73,2043.98,1840.47,2057.18,2248.66,350.94,333.16,8.01,0000 0000 0000 0000 000000
2014-02-14 00:45:41,0.43,5.77,0.00,20.12,25.42,28.44,6.38,31.50,1032.73,2043.99,1840.15,2056.89,2248.24,350.52,332.70,8.01,0000 0000 0000 0000 000000
2014-02-14 00:46:41,0.39,5.77,0.00,20.12,25.42,28.39,6.16,31.33,1032.73,2043.99,1839.65,2056.38,2248.07,349.47,331.83,8.02,0000 0000 0000 0000 000000
2014-02-14 00:47:41,0.43,5.77,0.00,20.12,25.41,28.36,5.90,31.38,1032.73,2043.99,1839.23,2056.13,2247.56,348.67,331.07,8.03,0000 0000 0000 0000 000000
2014-02-14 00:48:41,0.38,5.77,0.00,20.12,25.40,28.41,6.21,31.63,1032.73,2043.99,1838.75,2055.94,2247.20,350.32,332.63,8.03,0000 0000 0000 0000 000000
2014-02-14 00:49:42,0.38,5.77,0.00,20.12,25.40,28.45,6.37,31.42,1032.73,2043.99,1838.30,2055.42,2246.91,350.64,332.95,8.04,0000 0000 0000 0000 000000
2014-02-14 00:50:42,0.44,5.77,0.00,20.10,25.40,28.41,6.38,31.29,1032.75,2043.99,1837.94,2055.15,2246.38,350.75,333.07,8.04,0000 0000 0000 0000 000000
2014-02-14 00:51:42,0.40,5.78,0.00,20.09,25.40,28.41,6.24,31.38,1032.74,2043.99,1837.39,2054.85,2246.12,350.03,332.27,8.05,0000 0000 0000 0000 000000
2014-02-14 00:52:42,0.40,5.78,0.00,20.09,25.40,28.44,6.14,31.29,1032.73,2043.99,1837.07,2054.35,2245.75,350.07,331.96,8.06,0000 0000 0000 0000 000000
2014-02-14 00:53:43,0.41,5.78,0.00,20.10,25.40,28.39,6.38,31.46,1032.73,2043.99,1836.57,2054.13,2245.29,350.39,333.02,8.06,0000 0000 0000 0000 000000
2014-02-14 00:54:43,0.38,5.79,0.00,20.09,25.39,28.44,6.31,31.46,1032.73,2043.99,1836.20,2053.89,2245.06,349.73,332.32,8.07,0000 0000 0000 0000 000000
2014-02-14 00:55:43,0.36,5.79,0.00,20.09,25.38,28.41,6.13,31.29,1032.73,2043.99,1835.75,2053.37,2244.58,350.83,333.49,8.07,0000 0000 0000 0000 000000
2014-02-14 00:56:44,0.46,5.79,0.00,20.09,25.37,28.42,6.28,31.38,1032.73,2043.99,1835.28,2053.13,2244.21,350.22,333.04,8.08,0000 0000 0000 0000 000000
2014-02-14 00:57:44,0.37,5.79,0.00,20.09,25.37,28.38,6.11,31.25,1032.73,2043.99,1834.91,2052.83,2244.00,349.54,332.06,8.08,0000 0000 0000 0000 000000
2014-02-14 00:58:44,0.40,5.80,0.00,20.09,25.37,28.38,6.13,31.25,1032.73,2043.99,1834.36,2052.33,2243.47,351.14,332.60,8.09,0000 0000 0000 0000 000000
2014-02-14 00:59:45,0.48,5.80,0.00,20.09,25.37,28.44,6.29,31.29,1032.73,2043.99,1833.98,2052.08,2243.17,350.62,332.83,8.10,0000 0000 0000 0000 000000
2014-02-14 01:00:45,0.35,5.80,0.00,20.09,25.37,28.41,6.04,31.25,1032.73,2043.99,1833.42,2051.70,2242.78,349.82,332.20,8.10,0000 0000 0000 0000 000000
2014-02-14 01:01:45,0.44,5.80,0.00,20.08,25.37,28.33,6.27,31.54,1032.73,2043.99,1833.08,2051.26,2242.30,349.32,331.73,8.11,0000 0000 0000 0000 000000
2014-02-14 01:02:46,0.46,5.80,0.00,20.07,25.37,28.32,6.08,31.58,1032.73,2043.99,1832.51,2051.08,2242.08,350.02,332.41,8.11,0000 0000 0000 0000 000000
2014-02-14 01:03:46,0.33,5.81,0.00,20.07,25.36,28.38,6.23,31.38,1032.73,2043.99,1832.18,2050.63,2241.61,350.44,332.81,8.12,0000 0000 0000 0000 000000
2014-02-14 01:04:46,0.42,5.81,0.00,20.07,25.35,28.39,6.26,31.50,1032.73,2043.99,1831.64,2050.23,2241.22,349.94,332.34,8.13,0000 0000 0000 0000 000000
2014-02-14 01:05:46,0.46,5.81,0.00,20.07,25.35,28.37,6.18,31.29,1032.73,2043.99,1831.23,2050.03,2240.96,350.90,333.25,8.13,0000 0000 0000 0000 000000
2014-02-14 01:06:47,0.36,5.82,0.00,20.07,25.35,28.34,6.32,31.42,1032.73,2043.99,1830.87,2049.53,2240.43,350.36,332.73,8.14,0000 0000 0000 0000 000000
2014-02-14 01:07:47,0.45,5.82,0.00,20.07,25.35,28.35,6.08,31.50,1032.72,2043.99,1830.34,2049.19,2240.15,349.18,331.61,8.14,0000 0000 0000 0000 000000
2014-02-14 01:08:47,0.41,5.82,0.00,20.07,25.35,28.39,6.18,31.58,1032.72,2043.99,1829.98,2048.99,2239.80,349.47,331.89,8.15,0000 0000 0000 0000 000000
2014-02-14 01:09:47,0.40,5.82,0.00,20.07,25.35,28.37,6.17,31.38,1032.68,2044.00,1829.39,2048.48,2239.30,349.56,331.96,8.16,0000 0000 0000 0000 000000
2014-02-14 01:10:48,0.48,5.83,0.00,20.07,25.35,28.38,6.00,31.46,1032.69,2044.00,1829.08,2048.17,2239.10,349.04,331.60,8.16,0000 0000 0000 0000 000000
2014-02-14 01:11:48,0.35,5.83,0.00,20.07,25.35,28.35,6.38,31.46,1032.70,2044.00,1828.54,2047.79,2238.74,350.28,332.65,8.17,0000 0000 0000 0000 000000
2014-02-14 01:12:48,0.48,5.83,0.00,20.07,25.34,28.36,6.31,31.38,1032.70,2044.00,1828.20,2047.33,2238.29,349.31,331.72,8.17,0000 0000 0000 0000 000000
2014-02-14 01:13:49,0.39,5.83,0.00,20.07,25.33,28.36,6.03,31.29,1032.69,2044.00,1827.87,2047.12,2238.08,349.52,331.92,8.18,0000 0000 0000 0000 000000
2014-02-14 01:14:49,0.31,5.83,0.00,20.07,25.32,28.36,6.40,31.42,1032.69,2044.00,1827.34,2047.03,2237.64,350.42,333.15,8.18,0000 0000 0000 0000 000000
2014-02-14 01:15:49,0.31,5.84,0.00,20.07,25.32,28.38,6.05,31.46,1032.69,2044.00,1826.91,2046.74,2237.24,349.86,332.36,8.19,0000 0000 0000 0000 000000
2014-02-14 01:16:49,0.46,5.84,0.00,20.07,25.32,28.39,6.17,31.29,1032.69,2044.03,1826.35,2046.29,2237.02,350.50,332.85,8.20,0000 0000 0000 0000 000000
2014-02-14 01:17:50,0.44,5.84,0.00,20.07,25.32,28.34,6.17,31.25,1032.73,2044.03,1826.06,2046.10,2236.49,349.76,332.61,8.20,0000 0000 0000 0000 000000
2014-02-14 01:18:50,0.35,5.84,0.00,20.06,25.32,28.36,5.95,31.50,1032.70,2044.01,1825.49,2045.70,2236.17,349.31,331.44,8.21,0000 0000 0000 0000 000000
2014-02-14 01:19:50,0.43,5.85,0.00,20.07,25.32,28.35,6.09,31.46,1032.72,2044.02,1825.17,2045.31,2235.94,349.96,332.51,8.21,0000 0000 0000 0000 000000
2014-02-14 01:20:50,0.37,5.85,0.00,20.05,25.32,28.36,6.17,31.46,1032.69,2044.03,1824.75,2045.11,2235.44,349.72,332.04,8.22,0000 0000 0000 0000 000000
2014-02-14 01:21:50,0.36,5.85,0.00,20.06,25.32,28.34,6.09,31.46,1032.70,2044.02,1824.28,2044.77,2235.15,350.76,333.06,8.23,0000 0000 0000 0000 000000
2014-02-14 01:22:51,0.41,5.85,0.00,20.05,25.32,28.29,6.18,31.58,1032.71,2044.02,1823.85,2044.29,2234.70,349.92,332.34,8.23,0000 0000 0000 0000 000000
2014-02-14 01:23:51,0.49,5.86,0.00,20.06,25.32,28.27,6.23,31.50,1032.73,2044.03,1823.35,2044.10,2234.26,349.29,331.73,8.24,0000 0000 0000 0000 000000
2014-02-14 01:24:51,0.34,5.86,0.00,20.07,25.32,28.26,6.18,31.54,1032.72,2044.04,1823.08,2043.85,2234.05,349.52,331.87,8.24,0000 0000 0000 0000 000000
2014-02-14 01:25:51,0.34,5.86,0.00,20.07,25.32,28.30,6.22,31.54,1032.69,2044.03,1822.56,2043.34,2233.53,350.12,332.53,8.25,0000 0000 0000 0000 000000
2014-02-14 01:26:52,0.47,5.86,0.00,20.07,25.32,28.27,6.28,31.46,1032.71,2044.04,1822.20,2043.11,2233.19,350.56,333.05,8.25,0000 0000 0000 0000 000000
2014-02-14 01:27:52,0.35,5.86,0.00,20.07,25.32,28.31,6.47,31.46,1032.71,2044.02,1821.79,2042.66,2232.93,351.08,333.40,8.26,0000 0000 0000 0000 000000
2014-02-14 01:28:52,0.47,5.87,0.00,20.07,25.32,28.36,6.11,31.63,1032.69,2044.02,1821.30,2042.23,2232.37,349.88,332.13,8.27,0000 0000 0000 0000 000000
2014-02-14 01:29:53,0.42,5.87,0.00,20.07,25.32,28.34,6.23,31.54,1032.68,2044.02,1820.85,2041.93,2232.06,350.50,332.44,8.27,0000 0000 0000 0000 000000
2014-02-14 01:30:53,0.47,5.87,0.00,20.06,25.32,28.34,6.28,31.63,1032.71,2044.00,1820.32,2041.37,2231.50,350.61,332.97,8.28,0000 0000 0000 0000 000000
2014-02-14 01:31:53,0.49,5.88,0.00,20.05,25.32,28.30,6.08,31.50,1032.71,2044.01,1819.96,2041.13,2231.18,350.27,332.66,8.28,0000 0000 0000 0000 000000
2014-02-14 01:32:54,0.36,5.88,0.00,20.04,25.32,28.32,5.99,31.29,1032.69,2044.00,1819.40,2040.85,2230.84,350.31,332.49,8.29,0000 0000 0000 0000 000000
2014-02-14 01:33:54,0.44,5.88,0.00,20.05,25.32,28.31,6.44,31.42,1032.72,2044.03,1819.06,2040.34,2230.33,351.11,333.46,8.30,0000 0000 0000 0000 000000
2014-02-14 01:34:54,0.48,5.88,0.00,20.05,25.32,28.31,6.20,31.38,1032.72,2044.03,1818.47,2040.10,2230.04,350.16,332.60,8.30,0000 0000 0000 0000 000000
2014-02-14 01:35:55,0.39,5.89,0.00,20.05,25.32,28.29,6.16,31.25,1032.73,2044.02,1818.12,2039.79,2229.47,350.31,332.84,8.31,0000 0000 0000 0000 000000
2014-02-14 01:36:55,0.42,5.89,0.00,20.04,25.32,28.27,6.08,31.33,1032.72,2044.02,1817.61,2039.32,2229.17,349.46,332.07,8.31,0000 0000 0000 0000 000000
2014-02-14 01:37:55,0.43,5.89,0.00,20.04,25.32,28.30,6.19,31.67,1032.73,2044.00,1817.21,2039.08,2228.86,350.57,332.81,8.32,0000 0000 0000 0000 000000
2014-02-14 01:38:55,0.36,5.89,0.00,20.04,25.32,28.34,6.06,31.46,1032.73,2044.00,1816.68,2038.60,2228.33,348.97,331.44,8.33,0000 0000 0000 0000 000000
2014-02-14 01:39:56,0.51,5.90,0.00,20.04,25.32,28.37,6.09,31.33,1032.73,2044.00,1816.23,2038.22,2228.06,349.02,331.78,8.33,0000 0000 0000 0000 000000
2014-02-14 01:40:56,0.40,5.90,0.00,20.05,25.32,28.36,6.03,31.38,1032.69,2044.01,1815.72,2037.95,2227.53,349.61,332.04,8.34,0000 0000 0000 0000 000000
2014-02-14 01:41:56,0.48,5.90,0.00,20.04,25.32,28.39,6.17,31.46,1032.67,2044.02,1815.29,2037.42,2227.17,350.29,332.31,8.34,0000 0000 0000 0000 000000
2014-02-14 01:42:57,0.46,5.90,0.00,20.04,25.31,28.36,6.07,31.50,1032.61,2044.02,1814.89,2037.15,2226.80,349.20,331.63,8.35,0000 0000 0000 0000 000000
2014-02-14 01:43:57,0.41,5.91,0.00,20.04,25.30,28.36,6.06,31.46,1032.60,2044.01,1814.33,2036.81,2226.32,350.03,332.40,8.35,0000 0000 0000 0000 000000
2014-02-14 01:44:57,0.46,5.91,0.00,20.04,25.30,28.36,6.10,31.29,1032.60,2044.01,1813.95,2036.31,2226.06,349.10,331.54,8.36,0000 0000 0000 0000 000000
2014-02-14 01:45:57,0.42,5.91,0.00,20.02,25.30,28.33,6.30,31.42,1032.53,2044.00,1813.40,2036.10,2225.55,350.61,332.71,8.37,0000 0000 0000 0000 000000
2014-02-14 01:46:58,0.39,5.91,0.00,20.02,25.30,28.32,6.37,31.38,1032.40,2044.01,1813.09,2035.80,2225.20,350.80,333.10,8.37,0000 0000 0000 0000 000000
2014-02-14 01:47:58,0.40,5.92,0.00,20.04,25.30,28.33,6.08,31.29,1032.36,2044.01,1812.53,2035.31,2225.00,349.54,331.41,8.38,0000 0000 0000 0000 000000
2014-02-14 01:48:58,0.44,5.92,0.00,20.04,25.30,28.34,6.45,31.42,1032.34,2044.01,1812.17,2035.08,2224.48,350.31,332.59,8.38,0000 0000 0000 0000 000000
2014-02-14 01:49:58,0.33,5.92,0.00,20.04,25.30,28.35,6.27,31.29,1032.30,2044.02,1811.72,2034.72,2224.18,350.34,332.53,8.39,0000 0000 0000 0000 000000
2014-02-14 01:50:59,0.48,5.92,0.00,20.04,25.30,28.33,6.00,31.46,1032.29,2044.04,1811.28,2034.27,2223.88,349.53,332.13,8.40,0000 0000 0000 0000 000000
2014-02-14 01:51:59,0.43,5.93,0.00,20.04,25.30,28.35,6.22,31.46,1032.25,2044.01,1810.89,2034.07,2223.35,350.01,332.60,8.40,0000 0000 0000 0000 000000
2014-02-14 01:52:59,0.37,5.93,0.00,20.03,25.30,28.35,6.02,31.33,1032.25,2044.00,1810.34,2033.60,2223.11,349.67,331.83,8.41,0000 0000 0000 0000 000000
2014-02-14 01:53:59,0.45,5.93,0.00,20.04,25.30,28.36,6.38,31.42,1032.26,2044.00,1810.05,2033.23,2222.67,350.99,333.21,8.41,0000 0000 0000 0000 000000
2014-02-14 01:54:59,0.41,5.93,0.00,20.04,25.29,28.31,6.33,31.29,1032.27,2044.00,1809.48,2033.04,2222.24,350.11,332.45,8.42,0000 0000 0000 0000 000000
2014-02-14 01:56:00,0.38,5.94,0.00,20.04,25.29,28.30,6.41,31.54,1032.28,2044.01,1809.15,2032.55,2221.92,350.72,333.01,8.42,0000 0000 0000 0000 000000
2014-02-14 01:57:00,0.46,5.94,0.00,20.04,25.29,28.29,5.95,31.42,1032.30,2044.02,1808.60,2032.20,2221.39,349.30,331.61,8.43,0000 0000 0000 0000 000000
2014-02-14 01:58:00,0.49,5.94,0.00,20.04,25.28,28.32,5.96,31.42,1032.32,2044.01,1808.22,2032.06,2221.14,349.05,331.18,8.44,0000 0000 0000 0000 000000
2014-02-14 01:59:00,0.26,5.94,0.00,20.04,25.28,28.33,6.26,31.54,1032.30,2044.04,1807.85,2031.72,2220.90,350.06,332.34,8.44,0000 0000 0000 0000 000000
2014-02-14 02:00:01,0.45,5.94,0.00,20.04,25.27,28.28,6.03,31.33,1032.37,2044.03,1807.34,2031.27,2220.37,349.94,332.24,8.45,0000 0000 0000 0000 000000
2014-02-14 02:01:01,0.43,5.95,0.00,20.04,25.27,28.24,6.06,31.38,1032.36,2044.02,1807.01,2031.05,2220.13,349.68,332.12,8.45,0000 0000 0000 0000 000000
2014-02-14 02:02:01,0.29,5.95,0.00,20.04,25.27,28.27,6.08,31.33,1032.36,2044.03,1806.44,2030.64,2219.90,349.19,331.69,8.46,0000 0000 0000 0000 000000
2014-02-14 02:03:01,0.50,5.95,0.00,20.04,25.27,28.28,6.34,31.50,1032.42,2044.02,1806.12,2030.24,2219.42,351.33,333.58,8.47,0000 0000 0000 0000 000000
2014-02-14 02:04:01,0.37,5.95,0.00,20.04,25.27,28.22,6.07,31.58,1032.43,2044.04,1805.65,2030.08,2219.15,349.44,332.09,8.47,0000 0000 0000 0000 000000
2014-02-14 02:05:02,0.36,5.96,0.00,20.04,25.27,28.23,6.10,31.33,1032.34,2044.05,1805.23,2029.68,2218.86,349.95,332.21,8.48,0000 0000 0000 0000 000000
2014-02-14 02:06:02,0.44,5.96,0.00,20.04,25.27,28.27,6.10,31.42,1032.43,2044.03,1804.98,2029.25,2218.38,349.52,331.87,8.48,0000 0000 0000 0000 000000
2014-02-14 02:07:02,0.37,5.96,0.00,20.04,25.27,28.25,6.20,31.54,1032.43,2044.04,1804.44,2029.08,2218.14,350.19,332.66,8.49,0000 0000 0000 0000 000000
2014-02-14 02:08:02,0.33,5.96,0.00,20.02,25.27,28.20,6.27,31.54,1032.43,2044.05,1804.16,2028.84,2217.83,350.11,332.54,8.50,0000 0000 0000 0000 000000
2014-02-14 02:09:02,0.35,5.97,0.00,20.02,25.27,28.24,6.30,31.46,1032.48,2044.09,1803.79,2028.35,2217.33,349.83,332.54,8.50,0000 0000 0000 0000 000000
2014-02-14 02:10:03,0.49,5.97,0.00,20.02,25.26,28.23,6.22,31.46,1032.55,2044.12,1803.31,2028.12,2217.11,349.86,332.26,8.51,0000 0000 0000 0000 000000
2014-02-14 02:11:03,0.36,5.97,0.00,20.02,25.25,28.27,6.44,31.67,1032.56,2044.13,1803.01,2027.95,2216.82,351.25,333.58,8.51,0000 0000 0000 0000 000000
2014-02-14 02:12:03,0.30,5.97,0.00,20.02,25.25,28.27,6.36,31.88,1032.48,2044.09,1802.45,2027.46,2216.32,350.92,332.98,8.52,0000 0000 0000 0000 000000
2014-02-14 02:13:03,0.49,5.97,0.00,20.02,25.25,28.27,6.30,31.50,1032.45,2044.11,1802.16,2027.17,2216.11,351.27,333.56,8.52,0000 0000 0000 0000 000000
2014-02-14 02:14:04,0.28,5.98,0.00,20.02,25.25,28.23,6.18,31.58,1032.34,2044.19,1801.73,2027.05,2215.84,349.68,331.88,8.53,0000 0000 0000 0000 000000
2014-02-14 02:15:04,0.41,5.98,0.00,20.02,25.25,28.26,6.13,31.58,1032.37,2044.26,1801.27,2026.71,2215.36,349.56,332.12,8.54,0000 0000 0000 0000 000000
2014-02-14 02:16:04,0.56,5.98,0.00,20.02,25.25,28.26,6.23,31.63,1032.48,2044.24,1800.98,2026.27,2215.13,350.59,332.69,8.54,0000 0000 0000 0000 000000
2014-02-14 02:17:05,0.29,5.98,0.00,20.02,25.25,28.23,6.14,31.67,1032.56,2044.20,1800.44,2026.09,2214.88,349.30,331.95,8.55,0000 0000 0000 0000 000000
2014-02-14 02:18:05,0.32,5.99,0.00,20.02,25.25,28.21,6.27,31.79,1032.50,2044.19,1800.16,2025.77,2214.41,349.69,332.08,8.55,0000 0000 0000 0000 000000
2014-02-14 02:19:05,0.33,5.99,0.00,20.02,25.25,28.26,6.19,31.58,1032.53,2044.27,1799.90,2025.32,2214.15,350.17,332.55,8.56,0000 0000 0000 0000 000000
2014-02-14 02:20:05,0.46,5.99,0.00,20.02,25.24,28.25,6.25,31.58,1032.48,2044.36,1799.37,2025.12,2213.89,350.58,332.75,8.57,0000 0000 0000 0000 000000
2014-02-14 02:21:06,0.49,5.99,0.00,20.02,25.24,28.24,6.11,31.42,1032.37,2044.44,1799.09,2024.93,2213.38,349.49,331.85,8.57,0000 0000 0000 0000 000000
2014-02-14 02:22:06,0.39,6.00,0.00,20.02,25.23,28.22,6.10,31.63,1032.32,2044.42,1798.60,2024.43,2213.12,349.18,331.54,8.58,0000 0000 0000 0000 000000
2014-02-14 02:23:06,0.43,6.00,0.00,20.01,25.22,28.16,6.22,31.67,1032.27,2044.39,1798.22,2024.15,2212.82,350.41,332.70,8.58,0000 0000 0000 0000 000000
2014-02-14 02:24:06,0.35,6.00,0.00,20.02,25.22,28.19,6.14,31.63,1032.24,2044.37,1797.85,2024.05,2212.36,350.56,333.22,8.59,0000 0000 0000 0000 000000
2014-02-14 02:25:07,0.25,6.00,0.00,20.02,25.22,28.22,6.16,31.67,1032.25,2044.34,1797.36,2023.76,2212.14,350.58,332.85,8.59,0000 0000 0000 0000 000000
2014-02-14 02:26:07,0.31,6.00,0.00,20.02,25.22,28.22,6.38,31.50,1032.24,2044.38,1797.10,2023.31,2211.98,350.84,333.09,8.60,0000 0000 0000 0000 000000
2014-02-14 02:27:07,0.42,6.01,0.00,20.02,25.22,28.19,6.15,31.71,1032.26,2044.44,1796.65,2023.10,2211.56,350.03,332.32,8.61,0000 0000 0000 0000 000000
2014-02-14 02:28:07,0.47,6.01,0.00,20.02,25.22,28.14,6.21,31.71,1032.24,2044.55,1796.24,2022.94,2211.20,350.54,332.81,8.61,0000 0000 0000 0000 000000
2014-02-14 02:29:08,0.41,6.01,0.00,20.02,25.22,28.20,6.28,31.63,1032.24,2044.62,1796.02,2022.47,2211.04,350.24,332.53,8.62,0000 0000 0000 0000 000000
2014-02-14 02:30:08,0.37,6.01,0.00,20.02,25.22,28.20,6.49,31.96,1032.25,2044.62,1795.53,2022.17,2210.61,351.49,333.29,8.62,0000 0000 0000 0000 000000
2014-02-14 02:31:08,0.47,6.02,0.00,20.01,25.22,28.22,6.15,31.54,1032.24,2044.62,1795.19,2022.03,2210.22,350.35,332.19,8.63,0000 0000 0000 0000 000000
2014-02-14 02:32:09,0.28,6.02,0.00,20.02,25.22,28.22,6.39,31.58,1032.25,2044.68,1795.02,2021.61,2210.06,350.41,333.04,8.64,0000 0000 0000 0000 000000
2014-02-14 02:33:09,0.36,6.02,0.00,20.02,25.21,28.19,6.37,31.46,1032.27,2044.80,1794.52,2021.22,2209.70,350.63,333.29,8.64,0000 0000 0000 0000 000000
2014-02-14 02:34:09,0.59,6.02,0.00,20.02,25.20,28.17,6.29,31.42,1032.26,2044.86,1794.19,2021.08,2209.28,350.44,332.87,8.65,0000 0000 0000 0000 000000
2014-02-14 02:35:09,0.36,6.03,0.00,20.02,25.20,28.17,6.07,31.54,1032.25,2044.87,1793.91,2020.92,2209.09,349.25,331.96,8.65,0000 0000 0000 0000 000000
2014-02-14 02:36:10,0.23,6.03,0.00,20.02,25.20,28.17,6.32,31.46,1032.24,2044.88,1793.38,2020.44,2208.87,350.55,332.81,8.66,0000 0000 0000 0000 000000
2014-02-14 02:37:10,0.52,6.03,0.00,20.02,25.20,28.21,6.39,31.42,1032.25,2044.88,1793.06,2020.16,2208.37,350.60,332.87,8.66,0000 0000 0000 0000 000000